| time (UTC) | temp F | wind direction | speed MPH | gust MPH | rain 1hr in | rain 24hr in | rain mn in | humidity % | barometer mb |
| 20260505080002 | 51 | 215 | 10.0 | 14.0 | 0.00 | 0.00 | 0.00 | 91 | 1013.3 |
| 20260505074601 | 50 | 212 | 8.0 | 11.0 | 0.00 | 0.00 | 0.00 | 92 | 1013.5 |
| 20260505073102 | 51 | 216 | 8.0 | 11.0 | 0.00 | 0.00 | 0.00 | 91 | 1013.5 |
| 20260505071600 | 51 | 221 | 8.0 | 12.0 | 0.00 | 0.00 | 0.00 | 90 | 1013.5 |
| 20260505070100 | 51 | 203 | 10.0 | 16.0 | 0.00 | 0.00 | 0.00 | 90 | 1013.5 |
| 20260505064558 | 51 | 213 | 11.0 | 15.0 | 0.00 | 0.00 | 0.00 | 90 | 1013.4 |
| 20260505063102 | 52 | 207 | 12.0 | 17.0 | 0.00 | 0.00 | 0.00 | 89 | 1013.3 |
| 20260505061602 | 51 | 208 | 12.0 | 18.0 | 0.00 | 0.00 | 0.00 | 90 | 1013.4 |
| 20260505060056 | 51 | 217 | 12.0 | 15.0 | 0.00 | 0.00 | 0.00 | 91 | 1013.4 |
| 20260505054558 | 51 | 229 | 10.0 | 14.0 | 0.00 | 0.00 | 0.00 | 91 | 1013.6 |
| 20260505053054 | 51 | 226 | 14.0 | 20.0 | 0.00 | 0.00 | 0.00 | 90 | 1013.5 |
| 20260505051554 | 51 | 226 | 14.0 | 17.0 | 0.00 | 0.00 | 0.00 | 90 | 1013.6 |
| 20260505050124 | 51 | 240 | 13.0 | 20.0 | 0.00 | 0.00 | 0.00 | 90 | 1013.6 |
| 20260505041605 | 51 | 218 | 15.0 | 20.0 | 0.00 | 0.00 | 0.00 | 90 | 1013.6 |
| 20260505040059 | 51 | 218 | 13.0 | 19.0 | 0.00 | 0.00 | 0.00 | 89 | 1014.0 |
| 20260505034552 | 51 | 240 | 11.0 | 14.0 | 0.00 | 0.00 | 0.00 | 89 | 1014.1 |
| 20260505033051 | 51 | 228 | 13.0 | 19.0 | 0.00 | 0.00 | 0.00 | 89 | 1014.2 |
| 20260505031551 | 51 | 218 | 12.0 | 19.0 | 0.00 | 0.00 | 0.00 | 88 | 1014.1 |
| 20260505030049 | 51 | 224 | 12.0 | 19.0 | 0.00 | 0.00 | 0.00 | 87 | 1014.1 |
| 20260505024550 | 51 | 221 | 14.0 | 20.0 | 0.00 | 0.00 | 0.00 | 87 | 1014.2 |
| 20260505023051 | 52 | 221 | 13.0 | 21.0 | 0.00 | 0.00 | 0.00 | 86 | 1014.2 |
| 20260505021547 | 52 | 231 | 14.0 | 21.0 | 0.00 | 0.00 | 0.00 | 85 | 1014.2 |
| 20260505020044 | 52 | 217 | 16.0 | 24.0 | 0.00 | 0.00 | 0.00 | 84 | 1014.0 |
| 20260505014602 | 52 | 233 | 16.0 | 23.0 | 0.00 | 0.00 | 0.00 | 84 | 1013.9 |
| 20260505013043 | 52 | 229 | 18.0 | 25.0 | 0.00 | 0.00 | 0.00 | 83 | 1013.6 |
| 20260505011542 | 52 | 217 | 21.0 | 28.0 | 0.00 | 0.00 | 0.00 | 84 | 1013.2 |
| 20260505010042 | 53 | 212 | 24.0 | 30.0 | 0.00 | 0.00 | 0.00 | 82 | 1012.9 |
| 20260505004544 | 53 | 214 | 23.0 | 32.0 | 0.00 | 0.00 | 0.00 | 81 | 1012.7 |
| 20260505003040 | 53 | 208 | 21.0 | 26.0 | 0.00 | 0.00 | 0.00 | 80 | 1012.6 |
| 20260505001547 | 52 | 210 | 18.0 | 25.0 | 0.00 | 0.00 | 0.00 | 81 | 1012.5 |
| 20260505000049 | 52 | 216 | 20.0 | 27.0 | 0.00 | 0.00 | 0.00 | 80 | 1012.1 |
| 20260504234555 | 52 | 215 | 21.0 | 26.0 | 0.00 | 0.00 | 0.00 | 79 | 1012.1 |
| 20260504233040 | 52 | 203 | 23.0 | 28.0 | 0.00 | 0.00 | 0.00 | 79 | 1011.9 |
| 20260504231640 | 53 | 218 | 23.0 | 31.0 | 0.00 | 0.00 | 0.00 | 78 | 1011.9 |
| 20260504230038 | 53 | 226 | 23.0 | 29.0 | 0.00 | 0.00 | 0.00 | 76 | 1011.9 |
| 20260504224543 | 53 | 221 | 23.0 | 30.0 | 0.00 | 0.00 | 0.00 | 77 | 1011.8 |
| 20260504223043 | 53 | 217 | 25.0 | 31.0 | 0.00 | 0.00 | 0.00 | 76 | 1011.8 |
| 20260504221538 | 53 | 217 | 25.0 | 32.0 | 0.00 | 0.00 | 0.00 | 77 | 1011.8 |
| 20260504220037 | 53 | 195 | 24.0 | 32.0 | 0.00 | 0.00 | 0.00 | 76 | 1011.8 |
| 20260504214536 | 53 | 214 | 24.0 | 31.0 | 0.00 | 0.00 | 0.00 | 77 | 1011.8 |
| 20260504213054 | 53 | 221 | 24.0 | 37.0 | 0.00 | 0.00 | 0.00 | 75 | 1011.8 |
| 20260504211538 | 53 | 224 | 25.0 | 32.0 | 0.00 | 0.00 | 0.00 | 77 | 1012.1 |
| 20260504210035 | 53 | 213 | 24.0 | 31.0 | 0.00 | 0.00 | 0.00 | 75 | 1012.1 |
| 20260504204535 | 53 | 222 | 25.0 | 31.0 | 0.00 | 0.00 | 0.00 | 76 | 1011.9 |
| 20260504203036 | 53 | 221 | 22.0 | 32.0 | 0.00 | 0.00 | 0.00 | 75 | 1011.9 |
| 20260504201535 | 53 | 217 | 22.0 | 30.0 | 0.00 | 0.00 | 0.00 | 76 | 1011.7 |
| 20260504200033 | 53 | 212 | 24.0 | 33.0 | 0.00 | 0.00 | 0.00 | 74 | 1011.8 |
| 20260504194531 | 54 | 229 | 23.0 | 33.0 | 0.00 | 0.00 | 0.00 | 72 | 1011.9 |
| 20260504193034 | 55 | 217 | 22.0 | 30.0 | 0.00 | 0.00 | 0.00 | 70 | 1012.0 |
| 20260504191529 | 54 | 212 | 21.0 | 30.0 | 0.00 | 0.00 | 0.00 | 72 | 1012.1 |
| 20260504190128 | 54 | 203 | 21.0 | 27.0 | 0.00 | 0.00 | 0.00 | 75 | 1012.2 |
| 20260504184529 | 54 | 207 | 22.0 | 30.0 | 0.00 | 0.00 | 0.00 | 75 | 1012.3 |
| 20260504183028 | 54 | 216 | 23.0 | 30.0 | 0.00 | 0.00 | 0.00 | 74 | 1012.3 |
| 20260504181527 | 54 | 214 | 23.0 | 30.0 | 0.00 | 0.00 | 0.00 | 75 | 1012.2 |
| 20260504180026 | 54 | 211 | 24.0 | 31.0 | 0.00 | 0.00 | 0.00 | 75 | 1012.1 |
| 20260504174526 | 54 | 219 | 24.0 | 33.0 | 0.00 | 0.00 | 0.00 | 74 | 1012.1 |
| 20260504173034 | 54 | 205 | 20.0 | 27.0 | 0.00 | 0.00 | 0.00 | 76 | 1012.2 |
| 20260504171524 | 53 | 215 | 20.0 | 28.0 | 0.00 | 0.00 | 0.00 | 78 | 1012.3 |
| 20260504140111 | 54 | 241 | 21.0 | 26.0 | 0.00 | 0.00 | 0.00 | 64 | 1013.3 |
| 20260504081535 | 49 | 242 | 9.0 | 12.0 | 0.00 | 0.00 | 0.00 | 80 | 1012.7 |